TimeEST,TemperatureF,Dew PointF,Humidity,Sea Level PressureIn,VisibilityMPH,Wind Direction,Wind SpeedMPH,Gust SpeedMPH,PrecipitationIn,Events,Conditions,WindDirDegrees,DateUTC
12:53 AM,57.9,50.0,75,29.94,10.0,South,6.9,-,N/A,,Clear,170,2013-01-30 05:53:00
1:53 AM,57.0,51.1,81,29.91,10.0,South,8.1,-,N/A,,Clear,170,2013-01-30 06:53:00
2:53 AM,59.0,52.0,78,29.88,10.0,South,11.5,-,N/A,,Partly Cloudy,170,2013-01-30 07:53:00
3:53 AM,59.0,53.1,81,29.87,10.0,South,13.8,-,N/A,,Mostly Cloudy,190,2013-01-30 08:53:00
4:53 AM,60.1,54.0,80,29.84,10.0,SSW,17.3,23.0,N/A,,Overcast,200,2013-01-30 09:53:00
5:17 AM,60.8,55.4,82,29.85,10.0,SSW,13.8,-,N/A,,Overcast,200,2013-01-30 10:17:00
5:49 AM,60.8,55.4,82,29.84,10.0,SSW,11.5,19.6,N/A,,Overcast,210,2013-01-30 10:49:00
5:53 AM,60.1,55.0,83,29.83,10.0,SSW,13.8,19.6,N/A,,Overcast,210,2013-01-30 10:53:00
6:12 AM,60.8,55.4,82,29.84,10.0,SSW,9.2,-,N/A,,Overcast,210,2013-01-30 11:12:00
6:19 AM,60.8,55.4,82,29.84,10.0,SSW,10.4,-,N/A,,Overcast,210,2013-01-30 11:19:00
6:53 AM,60.1,55.9,86,29.82,10.0,South,9.2,-,N/A,,Overcast,190,2013-01-30 11:53:00
7:53 AM,61.0,57.0,87,29.81,10.0,South,12.7,-,N/A,,Overcast,180,2013-01-30 12:53:00
8:53 AM,63.0,57.9,84,29.79,10.0,South,12.7,21.9,N/A,,Overcast,190,2013-01-30 13:53:00
9:53 AM,64.9,57.9,78,29.76,9.0,South,17.3,23.0,N/A,,Overcast,190,2013-01-30 14:53:00
10:53 AM,64.9,59.0,81,29.73,4.0,South,10.4,-,N/A,,Haze,190,2013-01-30 15:53:00
11:53 AM,69.1,59.0,70,29.69,7.0,SSW,25.3,33.4,0.00,Rain,Light Rain,210,2013-01-30 16:53:00
12:53 PM,68.0,60.1,76,29.63,7.0,SW,20.7,34.5,0.00,Rain,Light Rain,220,2013-01-30 17:53:00
1:53 PM,68.0,61.0,78,29.61,7.0,SSW,21.9,36.8,0.00,Rain,Light Rain,200,2013-01-30 18:53:00
2:53 PM,69.1,60.1,73,29.59,7.0,SW,20.7,36.8,0.00,,Overcast,220,2013-01-30 19:53:00
3:33 PM,68.0,60.8,78,29.58,7.0,SSW,19.6,34.5,0.00,,Overcast,200,2013-01-30 20:33:00
3:45 PM,66.2,62.6,88,29.57,7.0,SSW,19.6,34.5,0.00,Rain,Light Rain,200,2013-01-30 20:45:00
3:53 PM,66.0,62.1,87,29.56,7.0,SSW,19.6,34.5,0.01,Rain,Light Rain,200,2013-01-30 20:53:00
4:53 PM,66.9,61.0,81,29.52,7.0,SSW,17.3,33.4,0.00,,Overcast,200,2013-01-30 21:53:00
5:53 PM,66.9,60.1,79,29.49,7.0,South,18.4,24.2,N/A,,Overcast,180,2013-01-30 22:53:00
6:22 PM,60.8,55.4,82,29.54,2.0,West,8.1,26.5,0.12,Rain,Rain,280,2013-01-30 23:22:00
6:26 PM,57.2,55.4,94,29.53,0.8,WNW,11.5,26.5,0.31,Rain,Heavy Rain,290,2013-01-30 23:26:00
6:41 PM,57.2,55.4,94,29.54,1.5,SSW,8.1,-,0.58,Rain,Heavy Rain,200,2013-01-30 23:41:00
6:53 PM,57.0,55.0,93,29.52,4.0,SSE,9.2,-,0.64,Rain,Light Rain,160,2013-01-30 23:53:00
7:00 PM,57.2,55.4,94,29.51,7.0,SSE,3.5,-,0.02,Rain,Light Rain,160,2013-01-31 00:00:00
7:53 PM,57.0,55.9,96,29.48,8.0,SSE,8.1,-,0.17,Rain,Light Rain,160,2013-01-31 00:53:00
8:53 PM,57.0,55.9,96,29.41,3.0,SSW,3.5,-,0.41,Rain,Heavy Rain,200,2013-01-31 01:53:00
9:01 PM,57.2,55.4,94,29.42,1.8,Variable,3.5,-,0.09,Rain,Heavy Rain,0,2013-01-31 02:01:00
9:15 PM,55.4,55.4,100,29.40,3.0,Calm,Calm,-,0.22,Rain,Rain,0,2013-01-31 02:15:00
9:22 PM,55.4,55.4,100,29.37,2.5,Variable,4.6,-,0.29,Rain,Heavy Rain,0,2013-01-31 02:22:00
9:31 PM,55.4,55.4,100,29.38,1.2,Calm,Calm,-,0.44,Rain,Heavy Rain,0,2013-01-31 02:31:00
9:39 PM,55.4,55.4,100,29.35,3.0,Variable,4.6,-,0.46,Rain,Light Rain,0,2013-01-31 02:39:00
9:53 PM,55.9,55.0,97,29.30,7.0,ENE,12.7,-,0.47,Rain,Light Rain,60,2013-01-31 02:53:00
10:03 PM,55.4,55.4,100,29.34,2.5,SE,9.2,20.7,0.08,Rain,Heavy Rain,130,2013-01-31 03:03:00
10:11 PM,57.2,55.4,94,29.32,4.0,SW,5.8,17.3,0.11,Rain,Rain,230,2013-01-31 03:11:00
10:20 PM,59.0,57.2,94,29.31,1.8,South,15.0,31.1,0.22,Rain,Heavy Rain,190,2013-01-31 03:20:00
10:33 PM,57.2,55.4,94,29.35,1.0,WNW,16.1,24.2,0.50,Rain,Heavy Rain,300,2013-01-31 03:33:00
10:46 PM,57.2,57.2,100,29.31,3.0,Calm,Calm,-,0.62,Rain,Light Rain,0,2013-01-31 03:46:00
10:53 PM,57.0,55.9,96,29.29,9.0,SSE,5.8,-,0.63,Rain,Light Rain,150,2013-01-31 03:53:00
11:15 PM,57.2,55.4,94,29.28,7.0,Calm,Calm,-,0.03,Rain,Light Rain,0,2013-01-31 04:15:00
11:35 PM,57.2,55.4,94,29.24,7.0,SSE,3.5,-,0.04,Rain,Light Rain,160,2013-01-31 04:35:00
11:48 PM,57.2,57.2,100,29.26,2.5,West,8.1,17.3,0.12,Rain,Rain,280,2013-01-31 04:48:00
11:53 PM,57.2,55.4,94,29.29,1.5,WNW,9.2,21.9,0.02,Rain,Heavy Rain,290,2013-01-31 04:53:00